• In United Kingdom
  • List of Countries
  • For 7 days
  • Water Temperature
  • Satellite Maps
  • Weather Map
  • Weather Widgets
  • user-avatar
    Login

    Hourly Weather Bregenz

    Today, 12 December, Tuesday

    Time Temperature Precipitation Wind Pressure Humidity
    00:00 -2°C° 1.8 mm 3 mps 628 mmHg 94%
    01:00 -2°C° 1.8 mm 3 mps 629 mmHg 93%
    02:00 -4°C° 1.3 mm 3 mps 629 mmHg 94%
    03:00 -4°C° 1.3 mm 3 mps 630 mmHg 94%
    04:00 -4°C° 1.3 mm 3 mps 631 mmHg 94%
    05:00 -4°C° 1 mm 3 mps 632 mmHg 94%
    06:00 -5°C° 1 mm 3 mps 633 mmHg 94%
    07:00 -5°C° 1 mm 4 mps 634 mmHg 94%
    08:00 -7°C° 0.7 mm 4 mps 635 mmHg 93%
    09:00 -6°C° 0.7 mm 3 mps 636 mmHg 93%
    10:00 -6°C° 0.7 mm 3 mps 637 mmHg 93%
    11:00 -6°C° 0.4 mm 3 mps 638 mmHg 92%
    12:00 -6°C° 0.4 mm 3 mps 638 mmHg 91%
    13:00 -6°C° 0.4 mm 3 mps 639 mmHg 91%
    14:00 -6°C° 0.3 mm 2 mps 639 mmHg 91%
    15:00 -6°C° 0.3 mm 2 mps 640 mmHg 92%
    16:00 -6°C° 0.3 mm 2 mps 640 mmHg 93%
    17:00 -7°C° 0.2 mm 2 mps 641 mmHg 93%
    18:00 -7°C° 0.2 mm 2 mps 641 mmHg 93%
    19:00 -8°C° 0.2 mm 2 mps 642 mmHg 93%
    20:00 -8°C° 0 mm 2 mps 642 mmHg 93%
    21:00 -8°C° 0 mm 2 mps 643 mmHg 92%
    22:00 -8°C° 0 mm 1 mps 643 mmHg 92%
    23:00 -9°C° 0 mm 2 mps 643 mmHg 92%

    Tomorrow, 13 December, Wednesday

    Time Temperature Precipitation Wind Pressure Humidity
    00:00 -10°C° 0 mm 2 mps 644 mmHg 91%
    01:00 -10°C° 0 mm 2 mps 644 mmHg 91%
    02:00 -12°C° 0 mm 2 mps 644 mmHg 89%
    03:00 -12°C° 0 mm 2 mps 643 mmHg 87%
    04:00 -13°C° 0 mm 2 mps 643 mmHg 86%
    05:00 -13°C° 0 mm 2 mps 643 mmHg 83%
    06:00 -13°C° 0 mm 2 mps 643 mmHg 81%
    07:00 -13°C° 0 mm 2 mps 643 mmHg 78%
    08:00 -13°C° 0 mm 3 mps 643 mmHg 75%
    09:00 -12°C° 0 mm 3 mps 644 mmHg 73%
    10:00 -9°C° 0 mm 3 mps 644 mmHg 70%
    11:00 -8°C° 0 mm 3 mps 643 mmHg 69%
    12:00 -5°C° 0 mm 2 mps 643 mmHg 68%
    13:00 -3°C° 0 mm 2 mps 642 mmHg 67%
    14:00 -3°C° 0 mm 2 mps 642 mmHg 68%
    15:00 -4°C° 0 mm 2 mps 641 mmHg 70%
    16:00 -4°C° 0 mm 2 mps 641 mmHg 71%
    17:00 -6°C° 0.1 mm 3 mps 641 mmHg 71%
    18:00 -6°C° 0.1 mm 3 mps 640 mmHg 71%
    19:00 -7°C° 0.1 mm 3 mps 640 mmHg 71%
    20:00 -6°C° 0.2 mm 3 mps 640 mmHg 71%
    21:00 -6°C° 0.2 mm 3 mps 640 mmHg 71%
    22:00 -7°C° 0.2 mm 4 mps 639 mmHg 71%
    23:00 -7°C° 0.3 mm 4 mps 639 mmHg 73%

    Day after tomorrow, 14 December, Thursday

    Time Temperature Precipitation Wind Pressure Humidity
    00:00 -7°C° 0.3 mm 4 mps 638 mmHg 74%
    01:00 -5°C° 0.3 mm 4 mps 638 mmHg 76%
    02:00 -5°C° 0.4 mm 4 mps 638 mmHg 78%
    03:00 -5°C° 0.4 mm 4 mps 637 mmHg 80%
    04:00 -5°C° 0.4 mm 4 mps 637 mmHg 82%
    05:00 -5°C° 0.4 mm 4 mps 637 mmHg 84%
    06:00 -4°C° 0.4 mm 4 mps 638 mmHg 86%
    07:00 -4°C° 0.4 mm 4 mps 638 mmHg 88%
    08:00 -4°C° 0.4 mm 4 mps 638 mmHg 89%
    09:00 -4°C° 0.4 mm 4 mps 638 mmHg 91%
    10:00 -2°C° 0.4 mm 3 mps 638 mmHg 93%
    11:00 -2°C° 0.5 mm 3 mps 638 mmHg 93%
    12:00 -2°C° 0.5 mm 3 mps 637 mmHg 93%
    13:00 -3°C° 0.5 mm 4 mps 637 mmHg 92%
    14:00 -2°C° 0.2 mm 3 mps 636 mmHg 92%
    15:00 -2°C° 0.2 mm 3 mps 635 mmHg 91%
    16:00 -2°C° 0.2 mm 3 mps 635 mmHg 91%
    17:00 -4°C° 0.1 mm 3 mps 634 mmHg 89%
    18:00 -4°C° 0.1 mm 3 mps 634 mmHg 87%
    19:00 -4°C° 0.1 mm 4 mps 633 mmHg 85%
    20:00 -4°C° 0.8 mm 4 mps 633 mmHg 85%
    21:00 -5°C° 0.8 mm 5 mps 633 mmHg 84%
    22:00 -5°C° 0.8 mm 5 mps 633 mmHg 84%
    23:00 -5°C° 1.8 mm 5 mps 633 mmHg 87%

    15 December, Friday

    Time Temperature Precipitation Wind Pressure Humidity
    00:00 -5°C° 1.8 mm 4 mps 633 mmHg 90%
    01:00 -5°C° 1.8 mm 4 mps 633 mmHg 93%
    02:00 -7°C° 1.1 mm 4 mps 633 mmHg 93%
    03:00 -7°C° 1.1 mm 4 mps 633 mmHg 94%
    04:00 -6°C° 1.1 mm 3 mps 633 mmHg 94%
    05:00 -7°C° 0.4 mm 3 mps 633 mmHg 93%
    06:00 -7°C° 0.4 mm 3 mps 633 mmHg 92%
    07:00 -7°C° 0.4 mm 3 mps 634 mmHg 91%
    08:00 -7°C° 0 mm 3 mps 634 mmHg 90%
    09:00 -6°C° 0 mm 3 mps 634 mmHg 89%
    10:00 -6°C° 0 mm 3 mps 634 mmHg 87%
    11:00 -6°C° 0 mm 3 mps 634 mmHg 86%
    12:00 -5°C° 0 mm 3 mps 633 mmHg 84%
    13:00 -3°C° 0 mm 2 mps 633 mmHg 82%
    14:00 -4°C° 0 mm 2 mps 633 mmHg 84%
    15:00 -5°C° 0 mm 2 mps 632 mmHg 85%
    16:00 -6°C° 0 mm 2 mps 632 mmHg 86%
    17:00 -6°C° 0.1 mm 2 mps 632 mmHg 87%
    18:00 -6°C° 0.1 mm 2 mps 633 mmHg 89%
    19:00 -7°C° 0.1 mm 3 mps 633 mmHg 90%
    20:00 -7°C° 0.3 mm 3 mps 633 mmHg 90%
    21:00 -8°C° 0.3 mm 4 mps 634 mmHg 90%
    22:00 -8°C° 0.3 mm 4 mps 634 mmHg 90%
    23:00 -8°C° 0.5 mm 4 mps 635 mmHg 92%

    16 December, Saturday

    Time Temperature Precipitation Wind Pressure Humidity
    00:00 -8°C° 0.5 mm 4 mps 635 mmHg 93%
    01:00 -8°C° 0.5 mm 3 mps 636 mmHg 94%
    02:00 -8°C° 0.2 mm 3 mps 636 mmHg 94%
    03:00 -8°C° 0.2 mm 3 mps 636 mmHg 94%
    04:00 -8°C° 0.2 mm 3 mps 637 mmHg 94%
    05:00 -9°C° 0.3 mm 3 mps 637 mmHg 94%
    06:00 -9°C° 0.3 mm 3 mps 638 mmHg 93%
    07:00 -9°C° 0.3 mm 3 mps 638 mmHg 93%
    08:00 -9°C° 0.1 mm 3 mps 639 mmHg 92%
    09:00 -9°C° 0.1 mm 3 mps 639 mmHg 90%
    10:00 -9°C° 0.1 mm 3 mps 639 mmHg 89%
    11:00 -8°C° 0.1 mm 3 mps 639 mmHg 87%
    12:00 -7°C° 0.1 mm 3 mps 639 mmHg 85%
    13:00 -7°C° 0.1 mm 3 mps 639 mmHg 83%
    14:00 -7°C° 0.1 mm 3 mps 639 mmHg 85%
    15:00 -7°C° 0.1 mm 2 mps 640 mmHg 87%
    16:00 -7°C° 0.1 mm 2 mps 640 mmHg 89%
    17:00 -8°C° 0.1 mm 2 mps 640 mmHg 89%
    18:00 -9°C° 0 mm 2 mps 640 mmHg 89%
    19:00 -10°C° 0 mm 2 mps 641 mmHg 90%
    20:00 -10°C° 0 mm 2 mps 641 mmHg 89%
    21:00 -10°C° 0 mm 2 mps 641 mmHg 88%
    22:00 -10°C° 0 mm 2 mps 641 mmHg 88%
    23:00 -10°C° 0.1 mm 2 mps 641 mmHg 87%

    17 December, Sunday

    Time Temperature Precipitation Wind Pressure Humidity
    00:00 -10°C° 0.1 mm 2 mps 641 mmHg 87%
    01:00 -10°C° 0.1 mm 2 mps 642 mmHg 86%
    02:00 -10°C° 0.1 mm 2 mps 642 mmHg 87%
    03:00 -10°C° 0.1 mm 2 mps 642 mmHg 88%
    04:00 -10°C° 0.1 mm 2 mps 642 mmHg 89%
    05:00 -10°C° 0.2 mm 2 mps 642 mmHg 91%
    06:00 -9°C° 0.2 mm 2 mps 643 mmHg 92%
    07:00 -8°C° 0.2 mm 1 mps 643 mmHg 93%
    08:00 -8°C° 0.2 mm 1 mps 644 mmHg 93%
    09:00 -7°C° 0.2 mm 1 mps 644 mmHg 93%
    10:00 -7°C° 0.2 mm 1 mps 644 mmHg 93%
    11:00 -8°C° 0.2 mm 2 mps 644 mmHg 92%
    12:00 -7°C° 0.2 mm 2 mps 645 mmHg 91%
    13:00 -7°C° 0.2 mm 2 mps 645 mmHg 91%
    14:00 -7°C° 0.1 mm 2 mps 645 mmHg 92%
    15:00 -7°C° 0.1 mm 2 mps 645 mmHg 92%
    16:00 -8°C° 0.1 mm 2 mps 645 mmHg 93%
    17:00 -9°C° 0.1 mm 2 mps 646 mmHg 93%
    18:00 -10°C° 0.1 mm 2 mps 646 mmHg 93%
    19:00 -10°C° 0.1 mm 2 mps 646 mmHg 93%
    20:00 -12°C° 0 mm 2 mps 646 mmHg 91%
    21:00 -13°C° 0 mm 2 mps 646 mmHg 89%
    22:00 -14°C° 0 mm 2 mps 646 mmHg 87%
    23:00 -14°C° 0 mm 2 mps 646 mmHg 84%
    Show more